Terminal Aerodrome Forecast
Issued by NWS Pueblo, CO

Home | Current Version | Previous Version | Text Only | Print | Product List | Glossary On
Versions: 1 2 3 4 5 6 7 8 9 10 11 12 13 14 15 16 17 18 19 20 21 22 23 24 25 26 27 28 29 30 31 32 33 34 35 36 37
000
FTUS45 KPUB 020208 AAB
TAFPUB
TAF AMD
KPUB 020208Z 0202/0224 19004KT P6SM VCSH OVC050
      TEMPO 0202/0203 5SM -SN BR BKN025
     FM020700 10005KT 3SM BR VCSH BKN015
     FM021400 18008KT 5SM BR BKN012 OVC035=

USA.gov is the U.S. government's official web portal to all federal, state and local government web resources and services.